Regional Weather Roundup
Issued by NWS

Home | Current Version | Previous Version | Text Only | Print | Product List | Glossary Off
Versions: 1 2 3 4 5 6 7 8 9 10 11 12 13 14 15 16 17 18 19 20 21 22 23 24 25 26 27 28 29 30 31 32 33 34 35 36 37 38 39 40 41 42 43 44 45 46 47 48 49 50

000
ASUS43 KIND 060559
RWRIN

WEATHER ROUNDUP FOR INDIANA
NATIONAL WEATHER SERVICE INDIANAPOLIS IN
200 AM EDT FRI MAY 06 2016

NOTE: "FAIR" INDICATES FEW OR NO CLOUDS BELOW 12,000 FEET WITH NO
SIGNIFICANT WEATHER AND/OR OBSTRUCTIONS TO VISIBILITY.

* - STATION DOES NOT REPORT WEATHER SUCH AS PRECIPITATION OR FOG.

+ - STATION NOT QUALITY CONTROLLED BY THE NATIONAL WEATHER SERVICE.
    USE DATA WITH CAUTION...ESPECIALLY DEWPOINT AND RELATIVE
    HUMIDITY OBSERVATIONS.

INZ001>003-010>013-019-020-060700-
NORTHWEST INDIANA

CITY           SKY/WX    TMP DP  RH WIND       PRES   REMARKS
RENSSELAER +   CLEAR     43  41  93 CALM      29.99S

$$

LMZ046-743>745-060700-
SOUTHERN LAKE MICHIGAN

STATION/POSITION TIME  TEMP    WIND        PRES    WAVE
                       AIR SEA DIR/SP/G            HT
                 (UTC) (F)     (DEG/KT/KT) (MB)    (FT)
BURNS HARBOR     0500   46     310/  2/  4 1016.3S
MICHIGAN CITY    0500   45     240/  5/  6   N/A

$$

INZ004-005-014>016-021>024-060700-
NORTH CENTRAL INDIANA

CITY           SKY/WX    TMP DP  RH WIND       PRES   REMARKS
GOSHEN         CLEAR     42  37  82 NW6       29.96S
6HR MIN TEMP:  42; 6HR MAX TEMP:  57;

SOUTH BEND     CLEAR     40  36  86 CALM      29.98S
6HR MIN TEMP:  39; 6HR MAX TEMP:  52;


$$

INZ006>009-017-018-025>027-060700-
NORTHEAST INDIANA

CITY           SKY/WX    TMP DP  RH WIND       PRES   REMARKS
ANGOLA *+        N/A     46  43  87 NW3       29.94S
FORT WAYNE     CLEAR     49  40  71 NW8       29.95S
6HR MIN TEMP:  49; 6HR MAX TEMP:  62;


$$

INZ028-029-035-036-043>045-051>053-060700-
WEST CENTRAL INDIANA

CITY           SKY/WX    TMP DP  RH WIND       PRES   REMARKS
CRAWFORDSVL +  CLEAR     43  43 100 CALM      29.99R
6HR MIN TEMP:  42; 6HR MAX TEMP:  59;

GREENCASTLE +  CLEAR     46  43  87 NW3       29.99S
LAFAYETTE      CLEAR     42  41  96 CALM      29.99R
6HR MIN TEMP:  42; 6HR MAX TEMP:  59;

TERRE HAUTE    CLEAR     46  43  89 CALM      29.99S
6HR MIN TEMP:  46; 6HR MAX TEMP:  63;


$$

INZ030>032-037>040-046>048-054>057-064-065-060700-
CENTRAL INDIANA

CITY           SKY/WX    TMP DP  RH WIND       PRES   REMARKS
INDIANAPOLIS   PTCLDY    48  40  73 N5        29.96R
6HR MIN TEMP:  48; 6HR MAX TEMP:  61;

-EAGLE CREEK   CLEAR     50  42  74 N3        29.96S
6HR MIN TEMP:  50; 6HR MAX TEMP:  61;

KOKOMO *+      PTCLDY    45  39  81 CALM      29.97S
6HR MIN TEMP:  45; 6HR MAX TEMP:  61;

SHELBYVILLE    CLEAR     50  43  77 N6        29.95S
6HR MIN TEMP:  50; 6HR MAX TEMP:  61; 6HR PCP:  0.05;


$$

INZ033-034-041-042-049-050-058-059-060700-
EAST CENTRAL INDIANA

CITY           SKY/WX    TMP DP  RH WIND       PRES   REMARKS
MUNCIE         CLEAR     48  41  76 NW3       29.95S
6HR MIN TEMP:  48; 6HR MAX TEMP:  62; 6HR PCP: TRACE;


$$

INZ060-061-067>069-081>083-085>088-060700-
SOUTHWEST INDIANA

CITY           SKY/WX    TMP DP  RH WIND       PRES   REMARKS
EVANSVILLE     CLEAR     48  44  86 CALM      30.00R
6HR MIN TEMP:  45; 6HR MAX TEMP:  59;

HUNTINGBURG *+ CLEAR     48  41  76 NW5       29.99S
6HR MIN TEMP:  48; 6HR MAX TEMP:  59;


$$

INZ062-063-066-070>080-084-089>092-060700-
SOUTH CENTRAL AND SOUTHEAST INDIANA

CITY           SKY/WX    TMP DP  RH WIND       PRES   REMARKS
BLOOMINGTON    CLEAR     46  41  82 CALM      29.98R
6HR MIN TEMP:  46; 6HR MAX TEMP:  60;

MADISON *+     CLEAR     50  45  81 NW3       29.97R
SEYMOUR +      CLEAR     50  45  81 CALM      29.96R

$$




USA.gov is the U.S. government's official web portal to all federal, state and local government web resources and services.